Notices

Please take our survey and provide feedback: https://eccc.sondage-survey.ca/f/LanguageSelection.aspx?s=442ca660-fcf1-47c0-95a9-59707d6fd709

Please note that the IDF dataset is available through this link: Intensity-Duration-Frequency (IDF) Files .

Hourly Data Report for November 21, 2019

EUREKA CLIMATE
NUNAVUT
Current Station Operator: ECCC - MSC

79°59'21.000" N
85°56'02.000" W
10.00 m
2401199
71613
NEK

Download Data

Hourly Data (November 2019)
Hourly Data Report for November 21, 2019
TIME
LST
Temp Definition
°C
Dew Point Definition
°C
Rel Hum Definition
%
Precip. Amount Definition
mm

Wind Dir Definition
10's deg

Wind Spd Definition
km/h
Visibility Definition
km
Stn Press Definition
kPa
Hmdx Definition


Wind Chill Definition


Weather Definition


00:00 -29.5 -32.3 77 0.0 8 3   101.81   -33 LegendNANA
01:00 -30.0 -32.8 76 0.0 11 8   101.83   -38 LegendNANA
02:00 -29.9 -32.7 77 0.0 12 4   101.83   -34 LegendNANA
03:00 -29.9 -32.7 77 0.0 9 6   101.84   -36 LegendNANA
04:00 -30.9 -33.8 76 0.0 10 7   101.86   -38 LegendNANA
05:00 -31.4 -34.4 75 0.0 10 6   101.83   -38 LegendNANA
06:00 -31.2 -34.1 76 0.0 9 1   101.84   -32 LegendNANA
07:00 -30.7 -33.5 76 0.0 10 5   101.84   -36 LegendNANA
08:00 -31.1 -34.1 75 0.0 9 6   101.84   -38 LegendNANA
09:00 -30.7 -33.6 76 0.0 11 7   101.83   -38 LegendNANA
10:00 -30.9 -33.9 75 0.0 4 6   101.80   -38 LegendNANA
11:00 -30.1 -32.9 76 0.0 11 4   101.81   -35 LegendNANA
12:00 -30.2 -33.1 76 0.0 9 7   101.82   -38 LegendNANA
13:00 -30.8 -33.7 76 0.2 11 6   101.84   -37 LegendNANA
14:00 -30.6 -33.5 76 0.0 10 9   101.85   -39 LegendNANA
15:00 -31.0 -34.0 75 0.0 8 4   101.86   -36 LegendNANA
16:00 -30.9 -33.8 75 0.0 9 6   101.88   -38 LegendNANA
17:00 -30.6 -33.5 76 0.0 11 7   101.90   -38 LegendNANA
18:00 -30.7 -33.5 76 0.0 10 7   101.91   -38 LegendNANA
19:00 -31.3 -34.2 75 0.0 11 8   101.89   -40 LegendNANA
20:00 -30.3 -33.1 76 0.0 11 5   101.91   -36 LegendNANA
21:00 -29.7 -32.5 77 0.0 11 8   101.92   -38 LegendNANA
22:00 -29.3 -32.1 77 0.0 13 5   101.92   -35 LegendNANA
23:00 -28.4 -31.1 78 0.0 12 1   101.92   -29 LegendNANA

Notes on Data Quality.

Legend

  • E = Estimated
  • M = Missing
  • NA = Not Available*
  • [empty] = Indicates an unobserved value
Date modified: